Location: Unspecified
(0.0000°N, 0.0000°E)
Time: 11:24:19
(UTC+00:00)

LightSail 2 - Pass Details

Date: 23 November 2019
Orbit: 696 x 730 km, 24.0° (Epoch: 07 December)

Event Time Altitude Azimuth Distance (km) Brightness Sun altitude
Rises 18:18:09 0° 251° (WSW) 3,077 11.1 -7.4°
Reaches altitude 10° 18:20:37 10° 254° (WSW) 2,153 9.4 -8.0°
Maximum altitude 18:25:37 62° 334° (NNW) 775 5.4 -9.2°
Enters shadow 18:30:12 12° 54° (NE) 1,984 6.8 -10.3°
